Regional Weather Roundup
Issued by NWS

Home | Current Version | Previous Version | Graphics & Text | Print | Product List | Glossary On
Versions: 1 2 3 4 5 6 7 8 9 10 11 12 13 14 15 16 17 18 19 20 21 22 23 24 25 26 27 28 29 30 31 32 33 34 35 36 37 38 39 40 41 42 43 44 45 46 47 48 49 50
640
ASUS45 KABQ 041001
RWRNM
NEW MEXICO REGIONAL WEATHER ROUNDUP
NATIONAL WEATHER SERVICE ALBUQUERQUE NM
400 AM MDT WED MAY 04 2016

NOTE: "FAIR" MEANS FEW OR NO CLOUDS BELOW 12,000 FEET AGL WITH NO
       SIGNIFICANT WEATHER OR OBSTRUCTIONS TO VISION.

      THIS PRODUCT IS RELEASED AS TWO VERSIONS.  ONE VERSION NEAR
      THE TOP OF THE HOUR CONTAINING PRELIMINARY DATA FROM ALBUQUERQUE
      AND OTHER STATIONS.  A FINAL VERSION WITH ADDITIONAL DATA IS
      ISSUED ABOUT 10 MINUTES AFTER THE HOUR.

NMZ501-503-504-510>518-041100-
NORTHWEST PLATEAU/NORTHCENTRAL MOUNTAINS

CITY           SKY/WX    TMP DP  RH WIND       PRES   REMARKS
FARMINGTON     FAIR      43  37  79 NE8       30.25S
SANTA FE       FAIR      37  29  72 N3        30.33S
TAOS           FAIR      32  23  69 N5        30.38S WCI  27

$$
NMZ402-403-502-505>509-041100-
WESTCENTRAL MOUNTAINS/SOUTHWEST MOUNTAINS

CITY           SKY/WX    TMP DP  RH WIND       PRES   REMARKS
GALLUP         FAIR      41  31  67 NE5       30.29S
GRANTS         FAIR      37  34  90 NW6       30.33S WCI  32
SILVER CITY      N/A     52  25  35 SW6       30.26R

$$
NMZ407-409-411-412-041100-
SOUTHERN DESERTS

CITY           SKY/WX    TMP DP  RH WIND       PRES   REMARKS
LORDSBURG      FAIR      59  32  36 SE13      30.16S
DEMING         FAIR      54  29  38 NE8       30.19S
HOLLOMAN AFB   FAIR      53  31  42 SW6       30.19R
ALAMOGORDO     FAIR      55  30  38 CALM      30.21S
T OR C         FAIR      52  26  36 NW8       30.22S

$$
NMZ519>523-041100-
CENTRAL VALLEYS/CENTRAL HIGHLANDS

CITY           SKY/WX    TMP DP  RH WIND       PRES   REMARKS
ALBUQUERQUE    FAIR      57  28  33 NE7       30.28R
DOUBLE EAGLE   FAIR      39  31  72 W7        30.31S WCI  34
MORIARTY ARPT  FAIR      28  22  80 N7        30.35S WCI  20
CLINES CORNERS FAIR      43  20  39 S7        30.35S
BELEN          FAIR      50  28  43 CALM      30.28S
SOCORRO        NOT AVBL

$$
NMZ524>526-539-540-041100-
SOUTHCENTRAL MOUNTAINS

CITY           SKY/WX    TMP DP  RH WIND       PRES   REMARKS
RUIDOSO        NOT AVBL

$$
NMZ527>531-041100-
NORTHEAST HIGHLANDS/NORTHEAST PLAINS

CITY           SKY/WX    TMP DP  RH WIND       PRES   REMARKS
LAS VEGAS      FAIR      36  28  73 CALM      30.35S
RATON          FAIR      33  26  75 NE3       30.32R
CLAYTON        FAIR      45  33  63 W13       30.24S

$$
NMZ532>537-041100-
EASTCENTRAL PLAINS

CITY           SKY/WX    TMP DP  RH WIND       PRES   REMARKS
TUCUMCARI      FAIR      42  33  70 W8        30.24R
CANNON AFB     FAIR      42  32  69 NW7       30.24S
CLOVIS AIRPORT FAIR      41  30  65 NW7       30.25R

$$
NMZ028-029-538-041100-
SOUTHEAST PLAINS

CITY           SKY/WX    TMP DP  RH WIND       PRES   REMARKS
ROSWELL        FAIR      48  31  51 W3        30.23S
ARTESIA        FAIR      46  30  53 NW8       30.24S
CARLSBAD       FAIR      51  36  56 N10       30.21R
HOBBS          FAIR      43  43 100 NW7       30.23S


$$




USA.gov is the U.S. government's official web portal to all federal, state and local government web resources and services.